Location: Holyhead Bay
(53.3667°N, 4.6667°W)
Time: 09:14:02
(UTC+00:00)

IRIDIUM 33 DEB - Pass Details

Date: 04 October 2021
Orbit: 581 x 601 km, 86.4° (Epoch: 24 October)

Event Time Altitude Azimuth Distance (km) Brightness Sun altitude
Rises 05:03:51 0° 345° (NNW) 2,842 ? -13.0°
Reaches altitude 10° 05:06:24 10° 332° (NNW) 1,931 ? -12.6°
Maximum altitude 05:09:44 23° 280° (W) 1,273 ? -12.1°
Enters shadow 05:12:03 15° 238° (WSW) 1,616 ? -11.8°
